Location: Unspecified
(0.0000°N, 0.0000°E)
Time: 02:40:03
(UTC+01:00)

Hubble Space Telescope - Visible Passes

Search period start: 20 February 2017 00:00
Search period end: 02 March 2017 00:00
Orbit: 538 x 542 km, 28.5° (Epoch: 19 February)

Date Brightness Start Highest point End Pass type
(mag) Time Alt. Az. Time Alt. Az. Time Alt. Az.
20 Feb 2.1 06:02:50 19° NNW 06:05:05 32° NNE 06:08:50 10° E visible
20 Feb 2.3 19:37:40 10° W 19:41:20 30° NNW 19:45:00 10° NNE visible
21 Feb 1.5 05:53:46 33° NNW 05:55:09 46° NNE 05:59:08 10° ESE visible
22 Feb 0.8 05:44:43 61° NNW 05:45:11 68° NNE 05:49:19 10° ESE visible
23 Feb 0.9 05:35:40 69° SE 05:35:40 69° SE 05:39:24 10° ESE visible
24 Feb 2.0 05:26:35 37° SSE 05:26:35 37° SSE 05:29:21 10° SE visible
25 Feb 2.9 05:17:29 22° SSE 05:17:29 22° SSE 05:19:12 10° SE visible
26 Feb 3.5 05:08:20 13° SSE 05:08:20 13° SSE 05:08:56 10° SSE visible
